PST,Max TemperatureF,Mean TemperatureF,Min TemperatureF,Max Dew PointF,MeanDew PointF,Min DewpointF,Max Humidity, Mean Humidity, Min Humidity, Max Sea Level PressureIn, Mean Sea Level PressureIn, Min Sea Level PressureIn, Max VisibilityMiles, Mean VisibilityMiles, Min VisibilityMiles, Max Wind SpeedMPH, Mean Wind SpeedMPH, Max Gust SpeedMPH,PrecipitationIn, CloudCover, Events, WindDirDegrees
2012-11-1,57,52,48,57,55,50,100,96,90,30.08,30.00,29.91,10,5,0,12,8,,0.00,6,Fog,164
2012-11-2,59,54,48,54,51,48,100,94,67,30.06,30.04,30.01,10,8,1,13,6,,0.07,5,Rain,131
2012-11-3,65,60,55,62,58,55,100,96,80,30.22,30.15,30.06,10,6,1,9,5,,0.20,7,Rain,139
2012-11-4,70,62,54,63,60,58,100,90,68,30.32,30.29,30.23,10,7,1,10,2,,0.00,4,,338
2012-11-5,79,66,54,66,58,54,100,75,50,30.28,30.15,30.06,10,10,6,5,1,,0.02,0,,139
2012-11-6,72,62,51,57,54,52,100,91,57,30.13,30.08,30.06,10,5,1,8,2,,0.00,2,,307
2012-11-7,59,52,43,52,49,42,100,88,63,30.15,30.10,29.97,10,6,0,12,3,,0.00,4,Fog-Rain,343
2012-11-8,46,42,38,45,42,39,100,100,87,29.95,29.85,29.82,10,6,1,9,4,,0.56,7,Rain,79
2012-11-9,48,42,37,45,41,38,100,97,82,29.99,29.95,29.90,10,9,3,7,4,,0.07,6,Rain,98
2012-11-10,50,43,36,46,41,36,100,95,82,30.27,30.15,30.00,10,10,10,8,5,,0.00,4,,147
2012-11-11,51,45,39,44,40,38,100,79,61,30.35,30.31,30.27,10,10,8,9,5,,0.00,7,Rain,131
2012-11-12,54,50,46,53,50,45,100,99,87,30.32,30.27,30.25,10,4,1,14,5,,0.28,8,Rain,134
2012-11-13,55,50,46,55,52,47,100,98,87,30.25,30.21,30.17,10,10,7,7,2,,0.00,5,,137
2012-11-14,61,53,45,54,47,43,100,86,53,30.19,30.15,30.08,10,10,6,7,1,,0.00,0,,304
2012-11-15,59,50,41,56,48,42,100,94,70,30.05,29.99,29.94,10,10,10,7,1,,0.00,0,,110
2012-11-16,59,53,47,54,51,44,100,93,55,29.97,29.86,29.79,10,6,1,9,4,,0.14,6,Rain,134
2012-11-17,53,48,43,54,49,44,100,100,100,29.95,29.78,29.70,10,3,0,16,7,,1.23,8,Fog-Rain-Thunderstorm,135
2012-11-18,51,48,46,51,47,45,100,94,76,29.97,29.94,29.91,10,6,2,21,12,31,0.02,8,Rain,160
2012-11-19,56,54,51,55,53,49,100,97,80,29.92,29.84,29.79,10,3,0,26,17,46,2.08,8,Fog-Rain,183
2012-11-20,55,52,50,56,54,51,100,100,100,29.87,29.82,29.73,8,3,0,17,10,32,1.84,8,Fog-Rain-Thunderstorm,184
2012-11-21,55,50,43,54,48,43,100,96,76,30.30,30.12,29.84,10,7,1,12,5,,0.59,6,Rain,208
2012-11-22,55,47,39,49,44,40,100,95,72,30.33,30.30,30.27,10,10,8,6,3,,0.00,0,,102
2012-11-23,57,48,39,52,45,40,100,89,55,30.31,30.29,30.26,10,10,10,8,4,,0.00,4,,133
2012-11-24,53,52,50,54,52,51,100,100,97,30.27,30.18,30.13,10,2,0,7,3,,0.38,8,Fog-Rain,151
2012-11-25,57,50,43,54,51,44,100,98,77,30.14,30.06,29.97,10,3,0,7,1,,0.00,4,Fog-Rain,83
2012-11-26,54,48,41,52,48,41,100,98,86,30.06,30.03,30.00,10,9,3,10,5,,0.00,7,Rain,156
2012-11-27,55,50,45,52,49,46,100,95,80,30.04,29.96,29.78,10,10,10,9,5,,0.00,3,,114
2012-11-28,56,50,46,54,51,46,100,95,67,29.79,29.72,29.60,10,6,1,22,11,37,0.45,6,Rain,150
2012-11-29,57,52,48,56,52,44,100,98,60,29.72,29.64,29.54,10,3,0,21,13,37,1.49,8,Fog-Rain,163
2012-11-30,55,53,51,56,54,52,100,99,88,29.69,29.64,29.54,8,4,2,26,13,41,0.17,8,Rain-Thunderstorm,182